linux/drivers/watchdog/
<<
>>
Prefs
Kconfig 63838 2018-12-05 18:32:14
Makefile 8090 2018-12-05 18:32:14
acquirewdt.c 8692 2018-12-05 18:32:14
advantechwdt.c 7991 2018-12-05 18:32:14
alim1535_wdt.c 10143 2018-12-05 18:32:14
alim7101_wdt.c 11174 2018-12-05 18:32:14
ar7_wdt.c 7202 2018-12-05 18:32:14
asm9260_wdt.c 9069 2018-12-05 18:32:14
aspeed_wdt.c 9676 2018-12-05 18:32:14
at91rm9200_wdt.c 7849 2018-12-05 18:32:14
at91sam9_wdt.c 10733 2018-12-05 18:32:14
at91sam9_wdt.h 1318 2018-12-05 18:32:14
ath79_wdt.c 7593 2018-12-05 18:32:14
atlas7_wdt.c 5981 2018-12-05 18:32:14
bcm2835_wdt.c 6914 2018-12-05 18:32:14
bcm47xx_wdt.c 5890 2021-08-29 15:04:50 -0700
bcm63xx_wdt.c 6921 2018-12-05 18:32:14
bcm7038_wdt.c 5439 2018-12-05 18:32:14
bcm_kona_wdt.c 9220 2018-12-05 18:32:14
booke_wdt.c 5993 2018-12-05 18:32:14
cadence_wdt.c 12863 2018-12-05 18:32:14
coh901327_wdt.c 12246 2018-12-05 18:32:14
cpu5wdt.c 6807 2018-12-05 18:32:14
cpwd.c 16142 2018-12-05 18:32:14
da9052_wdt.c 4833 2018-12-05 18:32:14
da9055_wdt.c 4142 2018-12-05 18:32:14
da9062_wdt.c 5923 2018-12-05 18:32:14
da9063_wdt.c 6215 2018-12-05 18:32:14
davinci_wdt.c 8002 2018-12-05 18:32:14
diag288_wdt.c 7659 2018-12-05 18:32:14
digicolor_wdt.c 4050 2018-12-05 18:32:14
dw_wdt.c 8969 2018-12-05 18:32:14
ebc-c384_wdt.c 4118 2018-12-05 18:32:14
ep93xx_wdt.c 3773 2018-12-05 18:32:14
eurotechwdt.c 10955 2018-12-05 18:32:14
f71808e_wdt.c 22380 2018-12-05 18:32:14
ftwdt010_wdt.c 5661 2018-12-05 18:32:14
gef_wdt.c 7672 2018-12-05 18:32:14
geodewdt.c 6603 2018-12-05 18:32:14
gpio_wdt.c 4681 2018-12-05 18:32:14
hpwdt.c 8922 2018-12-05 18:32:14
i6300esb.c 10647 2018-12-05 18:32:14
iTCO_vendor.h 719 2018-12-05 18:32:14
iTCO_vendor_support.c 11089 2018-12-05 18:32:14
iTCO_wdt.c 18045 2018-12-05 18:32:14
ib700wdt.c 8527 2018-12-05 18:32:14
ibmasr.c 9628 2018-12-05 18:32:14
ie6xx_wdt.c 8769 2018-12-05 18:32:14
imgpdc_wdt.c 9643 2018-12-05 18:32:14
imx2_wdt.c 12096 2018-12-05 18:32:14
indydog.c 4703 2018-12-05 18:32:14
intel-mid_wdt.c 4670 2018-12-05 18:32:14
intel_scu_watchdog.c 15396 2018-12-05 18:32:14
intel_scu_watchdog.h 2053 2018-12-05 18:32:14
iop_wdt.c 6030 2018-12-05 18:32:14
it8712f_wdt.c 10199 2018-12-05 18:32:14
it87_wdt.c 7893 2018-12-05 18:32:14
ixp4xx_wdt.c 4680 2018-12-05 18:32:14
jz4740_wdt.c 6249 2018-12-05 18:32:14
kempld_wdt.c 14832 2018-12-05 18:32:14
ks8695_wdt.c 7838 2018-12-05 18:32:14
lantiq_wdt.c 7513 2018-12-05 18:32:14
loongson1_wdt.c 4114 2018-12-05 18:32:14
lpc18xx_wdt.c 9331 2018-12-05 18:32:14
m54xx_wdt.c 5130 2018-12-05 18:32:14
machzwd.c 10062 2018-12-05 18:32:14
max63xx_wdt.c 7189 2018-12-05 18:32:14
max77620_wdt.c 5566 2018-12-05 18:32:14
mei_wdt.c 15213 2018-12-05 18:32:14
mena21_wdt.c 5269 2018-12-05 18:32:14
menf21bmc_wdt.c 5492 2018-12-05 18:32:14
menz69_wdt.c 4055 2018-12-05 18:32:14
meson_gxbb_wdt.c 5697 2018-12-05 18:32:14
meson_wdt.c 6305 2018-12-05 18:32:14
mixcomwd.c 7442 2018-12-05 18:32:14
moxart_wdt.c 4601 2018-12-05 18:32:14
mpc8xxx_wdt.c 7017 2018-12-05 18:32:14
mt7621_wdt.c 4812 2018-12-05 18:32:14
mtk_wdt.c 6377 2018-12-05 18:32:14
mtx-1_wdt.c 5950 2018-12-05 18:32:14
mv64x60_wdt.c 7825 2018-12-05 18:32:14
ni903x_wdt.c 6899 2018-12-05 18:32:14
nic7018_wdt.c 6339 2018-12-05 18:32:14
npcm_wdt.c 5868 2018-12-05 18:32:14
nuc900_wdt.c 7317 2018-12-05 18:32:14
nv_tco.c 12493 2018-12-05 18:32:14
nv_tco.h 2062 2018-12-05 18:32:14
octeon-wdt-main.c 16868 2018-12-05 18:32:14
octeon-wdt-nmi.S 2042 2021-08-29 15:04:50 -0700
of_xilinx_wdt.c 7887 2018-12-05 18:32:14
omap_wdt.c 9814 2018-12-05 18:32:14
omap_wdt.h 2300 2018-12-05 18:32:14
orion_wdt.c 17051 2018-12-05 18:32:14
pc87413_wdt.c 14375 2018-12-05 18:32:14
pcwd.c 26534 2018-12-05 18:32:14
pcwd_pci.c 20386 2018-12-05 18:32:14
pcwd_usb.c 21626 2018-12-05 18:32:14
pic32-dmt.c 5743 2018-12-05 18:32:14
pic32-wdt.c 6240 2018-12-05 18:32:14
pika_wdt.c 6901 2018-12-05 18:32:14
pnx4008_wdt.c 7247 2018-12-05 18:32:14
pnx833x_wdt.c 7250 2018-12-05 18:32:14
pretimeout_noop.c 1270 2018-12-05 18:32:14
pretimeout_panic.c 1252 2018-12-05 18:32:14
qcom-wdt.c 6550 2018-12-05 18:32:14
rave-sp-wdt.c 8344 2018-12-05 18:32:14
rc32434_wdt.c 8324 2018-12-05 18:32:14
rdc321x_wdt.c 7333 2018-12-05 18:32:14
renesas_wdt.c 7800 2018-12-05 18:32:14
retu_wdt.c 4630 2018-12-05 18:32:14
riowd.c 5716 2018-12-05 18:32:14
rn5t618_wdt.c 5299 2018-12-05 18:32:14
rt2880_wdt.c 5061 2018-12-05 18:32:14
rtd119x_wdt.c 4023 2018-12-05 18:32:14
rza_wdt.c 4909 2018-12-05 18:32:14
s3c2410_wdt.c 19667 2018-12-05 18:32:14
sa1100_wdt.c 5234 2018-12-05 18:32:14
sama5d4_wdt.c 7968 2018-12-05 18:32:14
sb_wdog.c 8737 2018-12-05 18:32:14
sbc60xxwdt.c 10359 2018-12-05 18:32:14
sbc7240_wdt.c 7049 2018-12-05 18:32:14
sbc8360.c 10039 2018-12-05 18:32:14
sbc_epx_c3.c 5119 2018-12-05 18:32:14
sbc_fitpc2_wdt.c 5377 2018-12-05 18:32:14
sbsa_gwdt.c 11305 2018-12-05 18:32:14
sc1200wdt.c 11405 2018-12-05 18:32:14
sc520_wdt.c 11087 2018-12-05 18:32:14
sch311x_wdt.c 13809 2018-12-05 18:32:14
scx200_wdt.c 6599 2018-12-05 18:32:14
shwdt.c 9311 2018-12-05 18:32:14
sirfsoc_wdt.c 5795 2018-12-05 18:32:14
smsc37b787_wdt.c 15474 2018-12-05 18:32:14
softdog.c 4654 2018-12-05 18:32:14
sp5100_tco.c 12816 2018-12-05 18:32:14
sp5100_tco.h 2307 2018-12-05 18:32:14
sp805_wdt.c 8915 2018-12-05 18:32:14
sprd_wdt.c 9936 2018-12-05 18:32:14
st_lpc_wdt.c 7256 2018-12-05 18:32:14
stm32_iwdg.c 7270 2018-12-05 18:32:14
stmp3xxx_rtc_wdt.c 3967 2018-12-05 18:32:14
sun4v_wdt.c 4600 2018-12-05 18:32:14
sunxi_wdt.c 7925 2018-12-05 18:32:14
tangox_wdt.c 5036 2018-12-05 18:32:14
tegra_wdt.c 7457 2018-12-05 18:32:14
ts4800_wdt.c 5352 2018-12-05 18:32:14
ts72xx_wdt.c 4415 2018-12-05 18:32:14
twl4030_wdt.c 3873 2018-12-05 18:32:14
txx9wdt.c 4683 2018-12-05 18:32:14
uniphier_wdt.c 6471 2018-12-05 18:32:14
ux500_wdt.c 4104 2018-12-05 18:32:14
via_wdt.c 7646 2018-12-05 18:32:14
w83627hf_wdt.c 10868 2018-12-05 18:32:14
w83877f_wdt.c 10178 2018-12-05 18:32:14
w83977f_wdt.c 12101 2018-12-05 18:32:14
wafer5823wdt.c 7264 2018-12-05 18:32:14
watchdog_core.c 10518 2018-12-05 18:32:14
watchdog_core.h 1330 2018-12-05 18:32:14
watchdog_dev.c 30140 2018-12-05 18:32:14
watchdog_pretimeout.c 4804 2018-12-05 18:32:14
watchdog_pretimeout.h 1684 2021-08-29 15:04:50 -0700
wd501p.h 1598 2018-12-05 18:32:14
wdat_wdt.c 12885 2018-12-05 18:32:14
wdrtas.c 15626 2018-12-05 18:32:14
wdt.c 15849 2018-12-05 18:32:14
wdt285.c 4856 2018-12-05 18:32:14
wdt977.c 12079 2018-12-05 18:32:14
wdt_pci.c 17676 2018-12-05 18:32:14
wm831x_wdt.c 7113 2018-12-05 18:32:14
wm8350_wdt.c 4098 2021-08-29 15:04:50 -0700
xen_wdt.c 4929 2018-12-05 18:32:14
ziirave_wdt.c 19780 2018-12-05 18:32:14
zx2967_wdt.c 7184 2018-12-05 18:32:14